Flag for U.S.A. Weather past 2 weeks in San Luis Obispo, California, U.S.A.

Now
58 °F

Clear.


Feels Like: 58 °F
Forecast: 56 / 76 °F
Wind: No wind

Location: San Luis Obispo County-Mc Chesney Field

Current Time: Aug 21, 2014 at 3:47:30 AM

Latest Report: Aug 21, 2014 at 2:56 AM


Visibility: 10 mi

Pressure: 29.92 "Hg

Humidity: 87%

Dew point: 54 °F

Location of San Luis ObispoLocation

Historic Weather in San Luis Obispo — Graph

°F

San Luis Obispo temperature yesterday

Maximum temperature yesterday: 76 °F (at 12:56 PM)
Minimum temperature yesterday: 60 °F (at 11:56 PM)
Average temperature yesterday: 66 °F

Past Weeks' High & Low Weather Summary

 TemperatureHumidityPressure
High81 °F (Aug 16, 12:56 PM)100% (Aug 15, 6:56 AM)30.06 "Hg (Aug 15, 6:56 AM)
Low56 °F (Aug 15, 6:56 AM)41% (Aug 16, 12:56 PM)29.82 "Hg (Aug 18, 4:56 PM)
Average65 °F76%29.95 "Hg
* Reported Aug 6 1:56 AM — Aug 21 1:56 AM, San Luis Obispo, Weather by CustomWeather, © 2014

Note: Actual official high and low records may vary slightly from our data, if they occured in-between our weather recording intervals... More about our weather records

Advertising

San Luis Obispo weather history for previous 24 hours

 ConditionsComfort  
Time TempWeatherWind HumidityBarometerVisibility
1:56 AM
Aug 21
59 °FClear.No wind87%29.92 "Hg10 mi
12:56 AM60 °FClear.3 mph83%29.93 "Hg10 mi
11:56 PM
Aug 20
60 °FClear.7 mph86%29.93 "Hg10 mi
10:56 PM61 °FClear.3 mph83%29.93 "Hg10 mi
9:56 PM61 °FClear.7 mph83%29.93 "Hg10 mi
8:56 PM63 °FClear.8 mph75%29.93 "Hg10 mi
7:56 PM65 °FSunny.9 mph70%29.91 "Hg10 mi
6:56 PM68 °FSunny.13 mph63%29.90 "Hg10 mi
5:56 PM72 °FSunny.9 mph55%29.89 "Hg10 mi
4:56 PM74 °FSunny.12 mph53%29.90 "Hg10 mi
3:56 PM74 °FSunny.14 mph53%29.90 "Hg10 mi
2:56 PM76 °FSunny.14 mph52%29.91 "Hg10 mi
1:56 PM76 °FSunny.9 mph52%29.92 "Hg10 mi
12:56 PM76 °FSunny.8 mph52%29.93 "Hg10 mi
11:56 AM73 °FScattered clouds.6 mph57%29.94 "Hg10 mi
10:56 AM69 °FOvercast.No wind66%29.96 "Hg10 mi
9:56 AM66 °FOvercast.No wind73%29.96 "Hg10 mi
8:56 AM65 °FOvercast.3 mph76%29.94 "Hg10 mi
7:56 AM63 °FOvercast.3 mph81%29.93 "Hg10 mi
6:56 AM63 °FOvercast.3 mph81%29.92 "Hg10 mi
5:56 AM62 °FOvercast.3 mph80%29.90 "Hg10 mi
4:56 AM62 °FOvercast.No wind80%29.89 "Hg10 mi
3:56 AM61 °FOvercast.5 mph83%29.89 "Hg10 mi
Weather by CustomWeather, © 2014

See weather overviewHow to use our weather pages